Hourly Data Report for October 06, 2017

All times are specified in Local Standard Time (LST). Add 1 hour to adjust for Daylight Saving Time where and when it is observed.

ARCTIC BAY CS
NUNAVUT

72°59'34.000" N
85°00'44.000" W
10.00 m
2400404
71592
XAT

Download Data

Hourly Data (October 2017)
Hourly Data Report for October 6, 2017
Temp Definition
°C
Dew Point Temp Definition
°C
Rel Hum Definition
%
Wind Dir Definition
10's deg

Wind Spd Definition
km/h
Visibility Definition
km
Stn Press Definition
kPa
Hmdx Definition


Wind Chill Definition


Weather Definition


TIME
00:00 -2.3 -7.1 69 9 34   100.59   -10 LegendNANA
01:00 -2.7 -8.1 67 8 24   100.60   -9 LegendNANA
02:00 -2.4 -8.1 65 8 20   100.62   -8 LegendNANA
03:00 -4.0 -9.1 67 7 19   100.66   -10 LegendNANA
04:00 -2.9 -8.6 65 7 17   100.64   -8 LegendNANA
05:00 -3.1 -8.9 65 7 22   100.64   -9 LegendNANA
06:00 -3.8 -9.1 67 9 12   100.64   -8 LegendNANA
07:00 -3.6 -9.6 63 9 19   100.63   -10 LegendNANA
08:00 -5.3 -10.1 69 8 14   100.61   -11 LegendNANA
09:00 -6.0 -11.0 68 7 13   100.62   -11 LegendNANA
10:00 -5.8 -11.0 67 7 15   100.60   -12 LegendNANA
11:00 -4.9 -9.8 69 6 9   100.59   -9 LegendNANA
12:00 -6.2 -11.1 68 7 17   100.55   -12 LegendNANA
13:00 -5.8 -10.7 68 7 15   100.56   -12 LegendNANA
14:00 -5.8 -10.6 69 7 14   100.55   -11 LegendNANA
15:00 -5.9 -10.9 68 8 13   100.54   -11 LegendNANA
16:00 -5.5 -11.0 65 7 10   100.55   -10 LegendNANA
17:00 -7.0 -12.0 67 9 13   100.55   -13 LegendNANA
18:00 -6.8 -12.0 67 7 18   100.55   -13 LegendNANA
19:00 -7.7 -12.4 69 7 19   100.57   -15 LegendNANA
20:00 -8.4 -12.8 70 7 22   100.57   -16 LegendNANA
21:00 -8.6 -12.9 71 7 21   100.59   -16 LegendNANA
22:00 -7.8 -11.5 75 7 19   100.57   -15 LegendNANA
23:00 -7.5 -10.9 77 9 10   100.57   -12 LegendNANA

Notes on Data Quality.

Legend

  • E = Estimated
  • M = Missing
  • NA = Not Available
  • ‡ = Partner data that is not subject to review by the National Climate Archives
Date modified: